ROMMA est une association bénévole à but non lucratif. Votre soutien est indispensable : ADHERER à ROMMA ou FAIRE un DON

Voiron - (38, Isère)

Voironnais (300 m)   Longitude: 05° 35' E   Latitude: 45° 23' N Station partenaire n°109
 

Détail journalier du     <<     >>

Température Precipitation Humidité Pression Vent Dir Rafale Dir. rafale Ensol.
Heure (°C) (mm) (%) (hPa) (km/h) (km/h) (min)
01:00 20.307810181NNO5NNO0
02:00 19.6080101805NNO0
03:00 19.208010182S6N0
04:00 18.807810182S6S0
05:00 18.207710182SSE6S0
06:00 17.708110182ENE6SSE0
07:00 18.008010181SSE6SSE0
08:00 21.807210182N6N60
09:00 23.606610186SSE15SSE60
10:00 23.8068101811SSE26SE60
11:00 24.506510187SSE19SSE30
12:00 25.806110184ESE11O0
13:00 27.405810184S13S60
14:00 28.105610177S16SSE60
15:00 31.104710173N13ENE60
16:00 30.904810166SSO16SSE60
17:00 31.105310167SSO16OSO60
18:00 30.905510167SSO16O60
19:00 30.705310166SSO15SO60
20:00 30.305710162SSO10S0
21:00 28.206710162N6N60
22:00 26.406410175NNO10NNO0
23:00 25.307010182ENE6ENE0
minuit 24.406710181ENE5NNO0

Graphique du 24-06-2019

 

Serveur OMMA